{"data":{"norad_id":53411,"intl_designator":"2022-097Z","name":"STARLINK-4497","alt_names":[],"object_type":"PAYLOAD","status":"ACTIVE","operator":null,"country":"US","launch_date":"2022-08-10","launch_site_code":"AFETR","launch_vehicle":null,"mission":null,"orbit_class":"UNKNOWN","rcs_meters":null,"size_class":null,"mass_kg":null,"dimensions":null,"purposes":["comms"],"wikipedia_slug":null,"has_3d_model":false,"image_url":null,"decayed_at":null,"tle_current":{"epoch":"2026-05-25T05:22:56.464032Z","epoch_age_seconds":52357,"freshness":"FRESH","line1":"1 53411U 22097Z   26145.22426463  .00000944  00000+0  77402-4 0  9991","line2":"2 53411  53.2143 130.5430 0000956  69.3752 290.7343 15.08841190210202","mean_motion":15.0884119,"eccentricity":9.56e-5,"inclination_deg":53.2143,"raan_deg":130.543,"arg_perigee_deg":69.3752,"mean_anomaly_deg":290.7343,"bstar":7.7402e-5,"rev_number":21020,"period_min":95.437479407624,"perigee_km":539.07840259511,"apogee_km":540.40110063002,"semimajor_km":6917.8767516126,"source":"CELESTRAK","updated_at":"2026-05-25T13:38:17.400587Z"}}}